Time,TemperatureF,DewpointF,PressureIn,WindDirection,WindDirectionDegrees,WindSpeedMPH,WindSpeedGustMPH,Humidity,HourlyPrecipIn,Conditions,Clouds,dailyrainin,SoftwareType,DateUTC
2013-05-13 00:03:00,48.0,39.0,29.63,West,270,5.0,19.0,70,-99.99,,,0.02,,2013-05-13 04:03:00,
2013-05-13 01:42:00,46.0,42.0,29.63,SSW,202,6.0,10.0,86,-99.99,,,0.02,,2013-05-13 05:42:00,
2013-05-13 01:52:00,46.0,42.0,29.63,SSW,202,6.0,10.0,86,-99.99,,,0.02,,2013-05-13 05:52:00,
2013-05-13 02:01:00,46.0,42.0,29.63,SSW,202,6.0,10.0,86,-99.99,,,0.02,,2013-05-13 06:01:00,
2013-05-13 02:42:00,45.0,42.0,29.65,East,90,4.0,8.0,90,-99.99,,,0.02,,2013-05-13 06:42:00,
2013-05-13 02:52:00,45.0,42.0,29.65,East,90,4.0,8.0,90,-99.99,,,0.02,,2013-05-13 06:52:00,
2013-05-13 03:01:00,45.0,42.0,29.65,East,90,4.0,8.0,90,-99.99,,,0.02,,2013-05-13 07:01:00,
2013-05-13 03:42:00,44.0,39.0,29.67,ESE,112,4.0,15.0,84,-99.99,,,-99.99,,2013-05-13 07:42:00,
2013-05-13 03:52:00,44.0,39.0,29.67,ESE,112,4.0,15.0,84,-99.99,,,-99.99,,2013-05-13 07:52:00,
2013-05-13 04:02:00,44.0,39.0,29.67,ESE,112,4.0,15.0,84,-99.99,,,-99.99,,2013-05-13 08:02:00,
2013-05-13 04:42:00,43.0,40.0,29.67,SE,135,4.0,7.0,90,-99.99,,,0.04,,2013-05-13 08:42:00,
2013-05-13 04:52:00,43.0,40.0,29.67,SE,135,4.0,7.0,90,-99.99,,,0.04,,2013-05-13 08:52:00,
2013-05-13 05:01:00,43.0,40.0,29.67,SE,135,4.0,7.0,90,-99.99,,,0.04,,2013-05-13 09:01:00,
2013-05-13 05:42:00,42.0,40.0,29.68,South,180,10.0,12.0,91,-99.99,,,0.04,,2013-05-13 09:42:00,
2013-05-13 05:52:00,42.0,40.0,29.68,South,180,10.0,12.0,91,-99.99,,,0.04,,2013-05-13 09:52:00,
2013-05-13 06:03:00,42.0,40.0,29.68,South,180,10.0,12.0,91,-99.99,,,0.04,,2013-05-13 10:03:00,
2013-05-13 06:43:00,41.0,38.0,29.71,SSE,157,4.0,15.0,90,-99.99,,,0.04,,2013-05-13 10:43:00,
2013-05-13 06:53:00,41.0,38.0,29.71,SSE,157,4.0,15.0,90,-99.99,,,0.04,,2013-05-13 10:53:00,
2013-05-13 07:03:00,41.0,38.0,29.71,SSE,157,4.0,15.0,90,-99.99,,,0.04,,2013-05-13 11:03:00,
2013-05-13 07:42:00,42.0,38.0,29.73,South,180,9.0,16.0,86,-99.99,,,0.04,,2013-05-13 11:42:00,
2013-05-13 07:52:00,42.0,38.0,29.73,South,180,9.0,16.0,86,-99.99,,,0.04,,2013-05-13 11:52:00,
2013-05-13 08:02:00,42.0,38.0,29.73,South,180,9.0,16.0,86,-99.99,,,0.04,,2013-05-13 12:02:00,
2013-05-13 08:42:00,44.0,36.0,29.75,SSE,157,9.0,24.0,73,-99.99,,,-99.99,,2013-05-13 12:42:00,
2013-05-13 08:52:00,44.0,36.0,29.75,SSE,157,9.0,24.0,73,-99.99,,,-99.99,,2013-05-13 12:52:00,
2013-05-13 09:01:00,44.0,36.0,29.75,SSE,157,9.0,24.0,73,-99.99,,,-99.99,,2013-05-13 13:01:00,
2013-05-13 09:42:00,46.0,35.0,29.76,SSE,157,5.0,27.0,66,-99.99,,,0.04,,2013-05-13 13:42:00,
2013-05-13 09:52:00,46.0,35.0,29.76,SSE,157,5.0,27.0,66,-99.99,,,0.04,,2013-05-13 13:52:00,
2013-05-13 10:02:00,46.0,35.0,29.76,SSE,157,5.0,27.0,66,-99.99,,,0.04,,2013-05-13 14:02:00,
2013-05-13 10:42:00,44.0,29.0,29.77,SE,135,20.0,38.0,55,-99.99,,,0.04,,2013-05-13 14:42:00,
2013-05-13 10:52:00,44.0,29.0,29.77,SE,135,20.0,38.0,55,-99.99,,,0.04,,2013-05-13 14:52:00,
2013-05-13 11:01:00,44.0,29.0,29.77,SE,135,20.0,38.0,55,-99.99,,,0.04,,2013-05-13 15:01:00,
2013-05-13 11:42:00,46.0,30.0,29.79,ESE,112,17.0,27.0,53,-99.99,,,0.04,,2013-05-13 15:42:00,
2013-05-13 11:53:00,46.0,30.0,29.79,ESE,112,17.0,27.0,53,-99.99,,,0.04,,2013-05-13 15:53:00,
2013-05-13 12:03:00,46.0,30.0,29.79,ESE,112,17.0,27.0,53,-99.99,,,0.04,,2013-05-13 16:03:00,
2013-05-13 12:34:00,48.0,29.0,29.78,ESE,112,9.0,28.0,48,-99.99,,,0.04,,2013-05-13 16:34:00,
2013-05-13 12:43:00,48.0,29.0,29.78,ESE,112,9.0,28.0,48,-99.99,,,0.04,,2013-05-13 16:43:00,
2013-05-13 12:53:00,48.0,29.0,29.78,ESE,112,9.0,28.0,48,-99.99,,,0.04,,2013-05-13 16:53:00,
2013-05-13 13:02:00,48.0,29.0,29.78,ESE,112,9.0,28.0,48,-99.99,,,0.04,,2013-05-13 17:02:00,
2013-05-13 13:04:00,49.0,29.0,29.79,South,180,11.0,27.0,45,-99.99,,,0.04,,2013-05-13 17:04:00,
2013-05-13 13:42:00,49.0,29.0,29.79,South,180,11.0,27.0,45,-99.99,,,0.04,,2013-05-13 17:42:00,
2013-05-13 13:54:00,49.0,29.0,29.79,South,180,11.0,27.0,45,-99.99,,,0.04,,2013-05-13 17:54:00,
2013-05-13 15:44:00,50.0,28.0,29.84,SSE,157,8.0,26.0,43,-99.99,,,0.03,,2013-05-13 19:44:00,
2013-05-13 15:53:00,50.0,28.0,29.84,SSE,157,8.0,26.0,43,-99.99,,,0.03,,2013-05-13 19:53:00,
2013-05-13 16:02:00,50.0,28.0,29.84,SSE,157,8.0,26.0,43,-99.99,,,0.03,,2013-05-13 20:02:00,
2013-05-13 16:44:00,49.0,27.0,29.84,SE,135,8.0,27.0,42,-99.99,,,0.03,,2013-05-13 20:44:00,
2013-05-13 16:53:00,49.0,27.0,29.84,SE,135,8.0,27.0,42,-99.99,,,0.03,,2013-05-13 20:53:00,
2013-05-13 17:03:00,49.0,27.0,29.84,SE,135,8.0,27.0,42,-99.99,,,0.03,,2013-05-13 21:03:00,
2013-05-13 17:44:00,49.0,27.0,29.85,SE,135,13.0,23.0,42,-99.99,,,0.03,,2013-05-13 21:44:00,
2013-05-13 17:53:00,49.0,27.0,29.85,SE,135,13.0,23.0,42,-99.99,,,0.03,,2013-05-13 21:53:00,
2013-05-13 18:03:00,49.0,27.0,29.85,SE,135,13.0,23.0,42,-99.99,,,0.03,,2013-05-13 22:03:00,
2013-05-13 18:43:00,49.0,30.0,29.87,SE,135,5.0,24.0,47,-99.99,,,0.03,,2013-05-13 22:43:00,
2013-05-13 18:52:00,49.0,30.0,29.87,SE,135,5.0,24.0,47,-99.99,,,0.03,,2013-05-13 22:52:00,
2013-05-13 19:02:00,49.0,30.0,29.87,SE,135,5.0,24.0,47,-99.99,,,0.03,,2013-05-13 23:02:00,
2013-05-13 19:42:00,48.0,29.0,29.88,South,180,8.0,20.0,48,-99.99,,,0.02,,2013-05-13 23:42:00,
2013-05-13 19:54:00,48.0,29.0,29.88,South,180,8.0,20.0,48,-99.99,,,0.02,,2013-05-13 23:54:00,
2013-05-13 20:02:00,48.0,29.0,29.88,South,180,8.0,20.0,48,-99.99,,,0.02,,2013-05-14 00:02:00,
2013-05-13 21:43:00,42.0,36.0,29.95,East,90,4.0,10.0,78,-99.99,,,0.02,,2013-05-14 01:43:00,
2013-05-13 21:53:00,42.0,36.0,29.95,East,90,4.0,10.0,78,-99.99,,,0.02,,2013-05-14 01:53:00,
2013-05-13 22:02:00,42.0,36.0,29.95,East,90,4.0,10.0,78,-99.99,,,0.02,,2013-05-14 02:02:00,
2013-05-13 22:42:00,40.0,37.0,29.95,SSE,157,4.0,9.0,88,-99.99,,,0.02,,2013-05-14 02:42:00,
2013-05-13 22:52:00,40.0,37.0,29.95,SSE,157,4.0,9.0,88,-99.99,,,0.02,,2013-05-14 02:52:00,
2013-05-13 23:01:00,40.0,37.0,29.95,SSE,157,4.0,9.0,88,-99.99,,,0.02,,2013-05-14 03:01:00,
2013-05-13 23:43:00,41.0,37.0,29.99,SSE,157,5.0,10.0,86,-99.99,,,0.02,,2013-05-14 03:43:00,
2013-05-13 23:53:00,41.0,37.0,29.99,SSE,157,5.0,10.0,86,-99.99,,,0.02,,2013-05-14 03:53:00,